Location: Dos Palmas
(32.4468°N, 116.8732°W)
Time: 20:33:15
(UTC+00:00)

BUGSAT 1 - Visible Passes

Search period start: 19 September 2024 00:00
Search period end: 29 September 2024 00:00
Orbit: 525 x 573 km, 98.1° (Epoch: 19 September)

Date Brightness Start Highest point End Pass type
(mag) Time Alt. Az. Time Alt. Az. Time Alt. Az.
19 Sep ? 04:05:52 17° N 04:05:52 17° N 04:06:50 10° N visible
20 Sep ? 04:01:21 15° N 04:01:21 15° N 04:02:10 10° N visible
21 Sep ? 03:56:50 14° N 03:56:50 14° N 03:57:27 10° N visible
22 Sep ? 03:52:17 13° N 03:52:17 13° N 03:52:43 10° N visible
23 Sep ? 03:47:43 11° N 03:47:43 11° N 03:47:56 10° N visible
